Location: Newark
(51.0500°N, 12.4500°E)
Time: 13:52:49
(UTC+00:00)

Vanguard 1 - Pass Details

Date: 23 February 2020
Orbit: 649 x 3834 km, 34.2° (Epoch: 30 March)

Event Time Altitude Azimuth Distance (km) Brightness Sun altitude
Rises 11:02:59 0° 265° (W) 7,273 14.5 28.9°
Reaches altitude 10° 11:09:10 10° 257° (WSW) 5,776 14.2 28.9°
Maximum altitude 11:21:55 31° 205° (SSW) 3,132 14.2 29.0°
Drops below altitude 10° 11:29:51 10° 147° (SSE) 3,535 13.9 29.0°
Sets 11:32:38 0° 136° (SE) 4,170 13.9 29.0°
